Location: GMARS
(34.2910°N, 116.3838°W)
Time: 23:21:42
(UTC-07:00)

Daily predictions for brighter satellites

Satellite Brightness Start Highest point End
(mag) Time Altitude Azimuth Time Altitude Azimuth Time Altitude Azimuth
Cosmos 2112 Rocket 4.1 19:12:22 10° N 19:17:35 59° ENE 19:22:43 10° SSE
FENGYUN 3A 4.3 19:12:57 10° SE 19:17:49 36° ENE 19:22:42 10° N
Meteor 2-5 Rocket 4.2 19:12:47 10° N 19:18:07 40° ENE 19:23:33 10° SE
Cosmos 2084 Rocket 4.4 19:21:07 10° SW 19:25:09 48° NW 19:28:59 10° NNE
Cosmos 1898 Rocket 3.5 19:22:54 10° S 19:28:09 65° ESE 19:33:24 10° NNE
Cosmos 990 Rocket 4.5 19:27:28 10° SSE 19:32:18 38° E 19:37:08 10° NE
USA 215 3.6 19:26:46 10° NE 19:32:59 46° SE 19:39:10 10° SSW
COSMOS 2406 3.4 19:33:07 10° N 19:38:43 52° ENE 19:44:15 10° SE
Aureole 1 Rocket 4.1 19:35:00 10° NNW 19:38:56 42° W 19:42:06 10° S
CZ-3C R/B 3.8 19:36:45 10° WSW 19:43:03 16° SW 19:46:10 10° S
Resurs 1-3 4.3 19:40:18 10° SE 19:44:14 33° ENE 19:48:10 10° N
HJ-1C 3.5 19:40:59 10° SSE 19:44:17 54° ENE 19:47:36 10° N
ATLAS CENTAUR R/B 4.3 19:44:07 10° W 19:45:36 12° WSW 19:47:07 10° SW
Helios 1B rocket 3.5 19:45:16 10° NE 19:48:39 24° E 19:52:00 10° SSE
Cosmos 1844 3.7 19:45:49 10° SSW 19:51:33 82° ESE 19:57:21 10° NNE
Geosat 3.9 19:47:18 10° NNE 19:52:19 72° ESE 19:57:19 10° SSW
BREEZE-M DEB (TANK) 3.2 19:51:42 10° S 19:54:11 29° SE 19:59:37 10° ENE
Lacrosse 4 Rocket 1.9 19:51:17 10° SW 19:55:18 61° WNW 19:59:19 10° NNE
CZ-2D R/B 3.9 19:52:01 10° SE 19:55:32 35° ENE 19:59:06 10° N
Tiangong 1 3.1 19:53:42 10° NW 19:55:47 17° N 19:57:19 13° NE
SL-27 R/B 3.8 19:54:28 10° NNE 19:57:17 22° ENE 19:57:54 21° E
NOSS 3-4 (A) 4.4 19:52:37 10° NW 19:59:40 63° WSW 20:07:07 10° SSE
Meteor 1-29 4.3 19:56:59 10° NE 19:58:58 20° ENE 19:58:58 20° ENE
NOSS 3-4 (C) 4.4 19:52:42 10° NW 19:59:46 63° WSW 20:07:14 10° SSE
SJ-6B 3.6 19:57:11 10° S 20:00:51 51° W 20:04:29 10° NNW
USA 186 3.7 20:02:56 10° NNE 20:02:56 10° NNE 20:02:58 10° NNE
Cosmos 1805 4.1 19:58:52 10° SSE 20:02:09 27° E 20:05:27 10° NNE
Cosmos 1937 Rocket 3.6 19:57:21 10° SSW 20:02:34 83° WNW 20:07:51 10° NNE
Cosmos 1437 Rocket 3.1 19:59:21 10° SSW 20:03:16 68° W 20:07:18 10° N
Meteor 1-22 Rocket 4.2 20:03:25 10° S 20:09:07 85° E 20:15:05 10° N
OE (NEXTSAT) 4.3 20:06:10 10° SW 20:09:45 86° SSE 20:11:46 24° ENE
Okean 3 Rocket 4.1 20:09:52 10° NNE 20:13:53 35° E 20:15:04 30° ESE
ALOS 3.0 20:09:58 10° S 20:14:32 55° W 20:19:07 10° NNW
Yuri Rocket 3.7 20:10:49 10° WSW 20:14:40 36° S 20:16:09 27° SE
Cosmos 1934 Rocket 4.0 20:09:37 10° S 20:15:48 86° W 20:21:56 10° N
SeaSat 1 3.5 20:14:00 10° S 20:18:42 46° WSW 20:23:26 10° NW
Cosmos 1758 3.7 20:19:19 37° E 20:19:23 37° E 20:23:04 10° NNE
Lacrosse 5 1.9 20:16:14 10° SW 20:21:17 82° NW 20:26:23 10° NE
CZ-3B DEB 3.8 20:09:03 10° SW 20:21:40 58° NW 20:27:22 10° NNE
Cosmos 1939 Rocket 4.3 20:26:40 23° NE 20:26:40 23° NE 20:29:05 10° NNE
Cosmos 1867 4.2 20:21:59 10° S 20:26:25 33° ESE 20:26:25 33° ESE
Cosmos 1953 2.6 20:30:52 46° ENE 20:30:52 46° ENE 20:34:20 10° NNE
Resurs 01 Rocket 2.3 20:26:09 10° S 20:30:27 55° W 20:34:48 10° NNW
Cosmos 2344 4.0 20:23:10 10° SW 20:30:47 65° NW 20:39:03 10° NNE
GP-B 3.4 20:31:09 42° ENE 20:31:09 42° ENE 20:35:13 10° NNE
DASH 3.8 20:14:15 10° WSW 20:33:51 57° S 20:35:46 36° SE
In-Cosmos 22 3.9 20:35:43 10° N 20:41:03 84° E 20:44:07 26° S
H-2A R/B 4.4 20:38:47 10° SSW 20:42:16 33° W 20:45:49 10° NNW
Spot 1 4.1 20:41:36 34° S 20:43:33 86° WSW 20:48:19 10° NNW
Cosmos 2278 Rocket 2.6 20:39:16 10° SSW 20:44:52 63° WNW 20:50:30 10° NNE
SAR-Lupe-4 3.8 20:44:32 60° SW 20:44:57 68° WSW 20:48:31 10° NNW
Cosmos 2100 Rocket 4.1 20:49:24 47° ESE 20:50:07 49° E 20:56:12 10° NNE
Cosmos 1833 Rocket 3.9 20:46:32 10° N 20:50:12 25° NE 20:50:12 25° NE
Cosmos 1605 Rocket 4.4 20:45:42 10° SSW 20:51:49 63° W 20:58:06 10° N
Cosmos 2297 3.5 20:50:23 10° S 20:56:01 71° ESE 21:01:44 10° NNE
RESURS DK-1 2.6 20:54:48 10° NNW 20:58:31 67° WNW 20:58:31 67° WNW
Delta 2 Rocket 3.6 20:54:36 10° W 20:58:24 63° WNW 20:58:24 63° WNW
Cosmos 1076 Rocket 4.2 20:57:56 10° N 21:00:54 44° N 21:00:54 44° N
OAO 1 4.4 20:57:46 10° W 21:03:16 82° N 21:03:37 77° ENE
Envisat 3.0 21:11:56 71° SW 21:12:13 74° WSW 21:17:19 10° NNW
Cosmos 2061 Rocket 4.1 21:13:21 61° ENE 21:13:21 61° ENE 21:18:59 10° NNE
USA 215 4.2 21:09:45 10° NNE 21:15:54 45° NW 21:21:59 10° WSW
Cosmos 1125 Rocket 3.9 21:13:27 10° SSW 21:18:34 60° WNW 21:23:42 10° N
Cosmos 2082 Rocket 3.0 21:13:10 10° N 21:17:10 40° NNE 21:17:10 40° NNE
ERS-1 Rocket 4.4 21:43:34 34° NNW 21:43:34 34° NNW 21:46:23 10° NNW
USA 267 4.1 21:46:37 37° NNE 21:46:37 37° NNE 21:51:38 10° NNW
CZ-3 Stage 3 4.4 22:38:06 10° W 22:47:11 31° W 22:47:11 31° W
